FW9842 Weather Reports


time (UTC)temp
C
wind
direction
speed
KPH
gust
KPH
rain 1hr
cm
rain 24hr
cm
rain mn
cm
humidity
%
barometer
mb
20260505041504 4 237 14.5 37.0 0.00 0.23 0.00 84 1004.4
20260505041025 4 233 14.5 37.0 0.00 0.23 0.00 84 1004.5
20260505040504 4 234 12.9 27.4 0.00 0.23 0.00 83 1004.4
20260505040005 4 233 14.5 35.4 0.00 0.23 0.00 82 1004.5
20260505035504 4 234 14.5 35.4 0.00 0.23 0.00 82 1004.5
20260505035004 5 234 14.5 29.0 0.00 0.23 0.00 81 1004.3
20260505034504 5 236 14.5 33.8 0.00 0.23 0.00 81 1004.3
20260505034004 5 244 14.5 33.8 0.00 0.23 0.00 81 1004.2
20260505033504 5 246 12.9 30.6 0.00 0.23 0.00 81 1004.2
20260505033004 5 244 12.9 25.7 0.00 0.23 0.00 81 1004.1
20260505032504 5 242 14.5 29.0 0.00 0.23 0.00 81 1003.8
20260505032004 5 239 14.5 32.2 0.00 0.23 0.00 81 1004.0
20260505031504 5 234 14.5 32.2 0.00 0.23 0.00 81 1003.6
20260505031025 5 230 16.1 33.8 0.00 0.23 0.00 82 1003.7
20260505030504 5 230 16.1 35.4 0.00 0.23 0.00 82 1003.6
20260505030004 5 231 16.1 33.8 0.00 0.23 0.00 82 1003.5
20260505025504 5 234 16.1 40.2 0.00 0.23 0.00 82 1003.3
20260505025004 5 233 16.1 40.2 0.00 0.23 0.00 82 1003.2
20260505024504 5 235 16.1 37.0 0.00 0.23 0.00 81 1003.0
20260505024004 5 238 17.7 37.0 0.00 0.23 0.00 81 1003.0
20260505023504 5 237 17.7 37.0 0.00 0.23 0.00 81 1002.9
20260505023004 5 237 16.1 32.2 0.00 0.23 0.00 81 1002.9
20260505022504 6 239 16.1 33.8 0.00 0.23 0.23 80 1002.8
20260505022004 6 234 17.7 40.2 0.00 0.23 0.23 80 1002.9
20260505021504 6 227 19.3 40.2 0.00 0.23 0.23 78 1002.6
20260505021004 7 224 16.1 35.4 0.00 0.23 0.23 77 1002.6
20260505020504 7 234 17.7 49.9 0.00 0.23 0.23 75 1002.7
20260505020004 7 245 20.9 49.9 0.00 0.23 0.23 74 1002.4
20260505015504 7 250 20.9 35.4 0.00 0.23 0.23 74 1002.3
20260505015004 7 249 20.9 35.4 0.00 0.23 0.23 74 1002.3
20260505014504 7 247 22.5 40.2 0.00 0.23 0.23 74 1002.2
20260505014025 7 248 24.1 40.2 0.00 0.23 0.23 74 1002.3
20260505013504 7 248 24.1 41.8 0.00 0.23 0.23 74 1002.2
20260505013004 7 247 24.1 48.3 0.00 0.23 0.23 74 1002.0
20260505012504 7 247 22.5 48.3 0.00 0.23 0.23 75 1002.0
20260505012004 7 245 24.1 38.6 0.00 0.23 0.23 75 1002.0
20260505011504 7 245 24.1 45.1 0.00 0.23 0.23 76 1001.8
20260505011025 7 248 25.7 49.9 0.00 0.23 0.23 76 1001.8
20260505010505 7 249 27.4 49.9 0.00 0.23 0.23 77 1001.8
20260505010025 7 246 25.7 46.7 0.00 0.23 0.23 78 1001.8
20260505005504 7 244 24.1 48.3 0.00 0.23 0.23 79 1001.8
20260505005025 7 243 24.1 51.5 0.00 0.23 0.23 79 1001.9
20260505004504 7 244 25.7 57.9 0.00 0.23 0.23 79 1001.8
20260505004004 7 246 25.7 57.9 0.00 0.23 0.23 79 1001.6
20260505003504 7 246 25.7 48.3 0.00 0.23 0.23 79 1001.6
20260505003004 7 242 25.7 48.3 0.00 0.23 0.23 79 1001.3
20260505002504 7 238 25.7 51.5 0.00 0.23 0.23 79 1001.2
20260505002004 7 242 29.0 51.5 0.00 0.23 0.23 80 1001.2
20260505001525 7 246 27.4 49.9 0.00 0.23 0.23 80 1000.9
20260505001004 6 245 27.4 51.5 0.00 0.23 0.23 80 1000.8
20260505000504 6 238 24.1 51.5 0.00 0.23 0.23 80 1000.8
20260505000004 6 240 24.1 41.8 0.00 0.23 0.23 81 1000.7
20260504235504 6 240 25.7 54.7 0.00 0.23 0.23 81 1000.6
20260504235004 6 237 29.0 54.7 0.00 0.23 0.23 81 1000.4
20260504234504 6 239 29.0 49.9 0.00 0.23 0.23 82 1000.2
20260504234004 6 245 27.4 56.3 0.00 0.23 0.23 82 1000.0
20260504233525 6 245 25.7 56.3 0.00 0.23 0.23 82 999.7
20260504233004 6 244 27.4 61.2 0.00 0.23 0.23 82 999.5
20260504232504 6 241 27.4 61.2 0.00 0.23 0.23 82 999.2
20260504232004 6 241 25.7 49.9 0.00 0.23 0.23 82 999.3
20260504231505 6 245 27.4 51.5 0.00 0.23 0.23 82 999.1
20260504231004 6 244 27.4 51.5 0.00 0.23 0.23 82 999.0
20260504230504 6 242 27.4 51.5 0.00 0.23 0.23 82 999.1
20260504230004 6 244 29.0 62.8 0.00 0.23 0.23 82 998.7
20260504225504 6 247 30.6 64.4 0.00 0.23 0.23 82 998.6
20260504225004 6 244 30.6 64.4 0.00 0.23 0.23 82 998.5
20260504224504 6 243 30.6 54.7 0.00 0.23 0.23 82 998.3
20260504224004 6 247 32.2 54.7 0.00 0.23 0.23 82 998.1
20260504223504 6 247 32.2 53.1 0.00 0.23 0.23 82 998.2
20260504223025 6 244 32.2 59.5 0.00 0.23 0.23 82 998.0
20260504222504 6 247 33.8 59.5 0.00 0.23 0.23 82 997.9
20260504222025 6 250 33.8 59.5 0.00 0.23 0.23 82 997.9
20260504221504 6 250 32.2 59.5 0.00 0.23 0.23 82 997.5
20260504221004 6 248 32.2 61.2 0.00 0.23 0.23 83 997.6
20260504220525 6 247 32.2 61.2 0.00 0.23 0.23 83 997.5
20260504220004 6 250 32.2 59.5 0.00 0.23 0.23 83 997.4
20260504215525 6 250 32.2 59.5 0.00 0.23 0.23 83 997.2
20260504215004 6 247 32.2 74.0 0.00 0.23 0.23 83 997.0
20260504214525 6 246 30.6 74.0 0.00 0.23 0.23 83 996.8
20260504214025 6 246 30.6 62.8 0.00 0.23 0.23 83 996.9
20260504213504 6 244 32.2 62.8 0.00 0.23 0.23 83 996.7
20260504213004 6 244 33.8 57.9 0.00 0.23 0.23 83 996.8
20260504212504 6 246 32.2 57.9 0.00 0.23 0.23 82 996.5
20260504212004 6 246 30.6 64.4 0.00 0.23 0.23 82 996.5
20260504211525 6 245 32.2 64.4 0.00 0.23 0.23 82 996.5
20260504211025 6 247 30.6 62.8 0.00 0.23 0.23 81 996.3
20260504210504 6 246 32.2 62.8 0.00 0.23 0.23 81 996.2
20260504210004 6 241 32.2 62.8 0.00 0.23 0.23 81 996.3
20260504205504 6 243 32.2 66.0 0.00 0.23 0.23 81 996.0
20260504205004 6 246 33.8 66.0 0.00 0.23 0.23 81 995.8
20260504204504 6 245 32.2 69.2 0.00 0.23 0.23 81 995.9
20260504204025 6 245 33.8 74.0 0.00 0.23 0.23 81 995.7
20260504203504 6 242 35.4 74.0 0.00 0.23 0.23 80 995.7
20260504203025 6 243 35.4 72.4 0.00 0.23 0.23 80 995.8
20260504202525 6 245 32.2 57.9 0.00 0.23 0.23 80 995.4
20260504202004 6 238 27.4 53.1 0.00 0.23 0.23 80 995.3
20260504201504 6 240 27.4 53.1 0.00 0.23 0.23 80 995.2
20260504201004 6 245 29.0 62.8 0.00 0.23 0.23 80 995.2
20260504200504 6 242 29.0 62.8 0.00 0.23 0.23 80 995.0
20260504200025 6 242 29.0 59.5 0.00 0.23 0.23 80 994.9
20260504195525 6 243 27.4 59.5 0.00 0.23 0.23 80 994.8
20260504195005 6 240 29.0 56.3 0.00 0.23 0.23 81 994.6
20260504194504 6 241 30.6 66.0 0.00 0.23 0.23 81 994.8
20260504194025 6 244 27.4 66.0 0.00 0.23 0.23 81 994.6
20260504193504 6 245 24.1 48.3 0.00 0.23 0.23 82 994.6
20260504193004 6 244 22.5 45.1 0.00 0.23 0.23 82 994.5
20260504192526 6 240 22.5 43.5 0.00 0.23 0.23 82 994.4
20260504192004 6 238 24.1 59.5 0.00 0.23 0.23 82 994.5
20260504191504 6 237 24.1 59.5 0.00 0.23 0.23 82 994.5
20260504191004 6 239 24.1 53.1 0.00 0.23 0.23 83 994.4
20260504190525 6 242 25.7 53.1 0.00 0.23 0.23 82 994.4
20260504190004 6 238 25.7 51.5 0.00 0.23 0.23 83 994.3
20260504185504 6 239 27.4 64.4 0.00 0.23 0.23 82 994.2
20260504185004 6 244 29.0 64.4 0.00 0.23 0.23 82 994.2
20260504184504 6 246 29.0 51.5 0.00 0.23 0.23 82 994.0
20260504184025 6 245 30.6 61.2 0.00 0.23 0.23 82 993.8
20260504183525 6 235 29.0 61.2 0.00 0.23 0.23 82 993.6
20260504183004 6 234 27.4 53.1 0.00 0.23 0.23 83 993.5
20260504182504 6 232 27.4 49.9 0.00 0.23 0.23 83 993.4
20260504182004 6 226 27.4 49.9 0.00 0.23 0.23 83 993.3
20260504181525 6 231 24.1 49.9 0.00 0.23 0.23 83 993.3
20260504181004 6 231 24.1 45.1 0.00 0.23 0.23 83 993.2
20260504180504 5 230 25.7 59.5 0.00 0.23 0.23 83 993.4
20260504180004 6 228 27.4 59.5 0.00 0.23 0.23 83 993.3
20260504175504 5 230 24.1 51.5 0.00 0.23 0.23 83 993.4
20260504175004 5 231 22.5 45.1 0.00 0.23 0.23 83 993.3
20260504174504 6 233 22.5 46.7 0.00 0.23 0.23 83 993.3
20260504174004 6 233 24.1 49.9 0.00 0.23 0.23 83 993.2
20260504173504 6 227 25.7 61.2 0.00 0.23 0.23 83 993.1
20260504173004 6 229 27.4 61.2 0.00 0.23 0.23 83 993.0
20260504172504 6 232 24.1 54.7 0.00 0.23 0.23 83 992.9
20260504172004 6 226 24.1 57.9 0.00 0.23 0.23 83 993.0
20260504171525 6 226 25.7 57.9 0.00 0.23 0.23 83 992.9
20260504171004 6 231 24.1 57.9 0.00 0.23 0.23 82 993.0
20260504170504 6 227 25.7 57.9 0.00 0.23 0.23 82 992.8
20260504151004 6 226 29.0 54.7 0.00 0.23 0.23 79 993.8
20260504150504 6 222 30.6 54.7 0.00 0.23 0.23 80 993.9
20260504141004 7 217 25.7 53.1 0.00 0.23 0.23 79 994.5
20260504140504 7 218 20.9 43.5 0.00 0.23 0.23 79 994.4
20260504130504 7 227 20.9 48.3 0.00 0.23 0.23 85 994.5
20260504110504 8 221 14.5 35.4 0.00 0.23 0.23 86 995.0
20260504100525 8 219 6.4 16.1 0.00 0.23 0.23 93 995.3
20260504082004 8 233 16.1 33.8 0.03 0.23 0.23 95 995.3
20260504081504 8 234 14.5 32.2 0.03 0.23 0.23 95 995.2
20260504081004 8 232 12.9 32.2 0.00 0.20 0.20 96 995.2
20260504080504 8 228 9.7 22.5 0.00 0.20 0.20 96 995.2
20260504050525 7 118 9.7 20.9 0.05 0.05 0.05 95 998.6
20260504050004 7 122 8.0 20.9 0.03 0.03 0.03 95 998.7
20260504045504 7 116 8.0 20.9 0.03 0.03 0.03 94 999.0